Lexington Weather

Lexington, Massachusetts, USA

46°F
10/22/2019 2:00am 
  • Lexington Conditions: Few Clouds
  • Temperature: 46.0°F / 7.8°CWarmer 0.5°F than last hour.
  • Dew Point: 44.4°FIncreased 1.4°Fsince last hour.
  • Relative Humidity: 94%Increased 3.0% since last hour.
  • Wind: Calm, 10-min avg: Calm, gust: None
  • Barometer: 30.12 in Steady
  • Visibility: 10 miles
  • Rain Today: 0.00 in
  •   

Regional Weather Roundup
for Boston, MA

        
000
ASUS41 KBOX 200200
RWRBOX

REGIONAL WEATHER ROUNDUP
NATIONAL WEATHER SERVICE BOSTON/NORTON MA
1000 PM EDT SAT OCT 19 2019

NOTE:  "FAIR" INDICATES FEW OR NO CLOUDS BELOW 12,000 FEET WITH NO 
SIGNIFICANT WEATHER AND/OR OBSTRUCTIONS TO VISIBILITY.

MAZALL-200300-
EASTERN MASSACHUSETTS
  
CITY           SKY/WX    TMP DP  RH WIND       PRES   REMARKS
BOSTON         FAIR      54  38  54 NW3       30.04R                  
BEVERLY        FAIR      39  35  86 NW5       30.02S                  
LAWRENCE       FAIR      41  38  89 CALM      30.05S                  
BEDFORD        FAIR      41  35  79 CALM      30.03R                  
BLUE HILL      NOT AVBL                                               
NORWOOD        FAIR      40  34  79 CALM      30.04R                  
MARSHFIELD     NOT AVBL                                               
PLYMOUTH       FAIR      40  38  93 CALM      30.03S                  
TAUNTON        FAIR      37  33  85 CALM      30.03S                  
NEW BEDFORD      N/A     40  37  89 MISG      30.03S                  
$$

MAZALL-200300-
CAPE COD AND THE ISLANDS
  
CITY           SKY/WX    TMP DP  RH WIND       PRES   REMARKS
FALMOUTH       CLEAR     39  39 100 CALM      30.04R                  
HYANNIS        NOT AVBL                                               
CHATHAM        NOT AVBL                                               
PROVINCETOWN   FAIR      43  41  93 S3          N/A                   
NANTUCKET      FAIR      44  40  85 NW3       30.05R                  
MARTHAS VNYRD  FAIR      37  35  92 CALM      30.04R                  
$$
 
MAZALL-200300-
CENTRAL AND WESTERN MASSACHUSETTS
  
CITY           SKY/WX    TMP DP  RH WIND       PRES   REMARKS
WORCESTER      FAIR      45  35  68 W3        30.03R                  
FITCHBURG      FAIR      39  35  86 N3        30.05R                  
ORANGE         FAIR      38  35  89 CALM      30.05R                  
SPRINGFIELD    NOT AVBL                                               
WESTFIELD      FAIR      39  35  86 CALM      30.04R                  
NORTH ADAMS    FAIR      34  31  88 CALM      30.06R                  
PITTSFIELD     FAIR      37  33  85 W3        30.03R                  
$$
 
RIZALL-200300-
RHODE ISLAND
  
CITY           SKY/WX    TMP DP  RH WIND       PRES   REMARKS
PROVIDENCE     FAIR      46  41  82 W7        30.04S                  
NEWPORT        FAIR      46  41  82 CALM      30.04R                  
BLOCK ISLAND   FAIR      48  41  76 SW8       30.06R                  
SMITHFIELD     FAIR     N/A N/A N/A SW3       30.04R                  
WESTERLY       FAIR      44  42  93 CALM      30.05R                  
$$
 
CTZALL-200300-
CONNECTICUT
  
CITY           SKY/WX    TMP DP  RH WIND       PRES   REMARKS
BRADLEY INTL   FAIR      45  36  70 CALM      30.04R                  
HARTFORD       FAIR      43  40  89 CALM      30.05R                  
BRIDGEPORT     FAIR      50  43  77 CALM      30.05R                  
DANBURY        FAIR      41  37  86 CALM      30.06R                  
GROTON         NOT AVBL                                               
NEW HAVEN      FAIR      47  42  83 CALM      30.05R                  
CHESTER        FAIR      48  41  76 CALM      30.05R                  
MERIDEN        FAIR      41  37  86 CALM      30.05R                  
WILLIMANTIC    FAIR      40  38  93 CALM      30.06R                  
OXFORD         FAIR      43  37  79 CALM      30.05R                  
$$

MEZ002-015-021-024-NHZ003-005-008-011-012-014-VTZ005-008-200300-
NORTHERN NEW ENGLAND
  
CITY           SKY/WX    TMP DP  RH WIND       PRES   REMARKS
PORTLAND ME    FAIR      43  35  73 CALM      30.05R                  
BANGOR ME      FAIR      44  35  70 W8        30.03R                  
CONCORD NH     FAIR      38  34  85 CALM      30.04S                  
MANCHESTER NH  FAIR      44  36  73 N3        30.02S                  
NASHUA NH      FAIR      40  38  93 NW5       30.05R                  
PORTSMOUTH NH  NOT AVBL                                               
JAFFREY NH     FAIR      35  33  92 CALM      30.04R                  
KEENE NH       FAIR      35  34  96 CALM      30.05R                  
BURLINGTON VT  FAIR      39  35  86 CALM      30.05S                  
MT. WASHINGTON PTCLDY    36   5  27 NW21        N/A  WCI  24          
$$

NYZ052-076-200300-
EASTERN NEW YORK
  
CITY           SKY/WX    TMP DP  RH WIND       PRES   REMARKS
ALBANY         FAIR      41  36  82 CALM      30.04R                  
NEW YORK CITY  MOCLDY    57  39  51 S6        30.04R                  
$$
 
ANZALL-200300-
MARINE OBSERVATIONS
  
STATION/POSITION TIME  TEMP    WIND        PRES    VSBY  WAVE
                       AIR SEA DIR/SP/G                  HT/PER
                 (UTC) (F)     (DEG/KT/KT) (MB)    (MI)  (FT/S)
BOSTON BUOY      0050   54 56  180/  8/  8 1016.2          1/11
BUZZARDS BAY     0100   56     270/ 12/ 13 1017.6R
NANTUCKET SOUND  0100      56              1017.2
MASS BAY-STELLWA NOT AVBL
ISLE OF SHOALS   0100   54     320/  7/  8 1016.4R
S OF BLOCK IS    0130      60                N/A           2/ 4
$$

......................KEY.........................
  SKY/WX - SKY CONDITION/PRESENT WEATHER
  TMP    - TEMPERATURE IN FAHRENHEIT
  DWPT   - DEWPOINT IN FAHRENHEIT
  RH     - RELATIVE HUMIDITY IN PERCENT
  WIND   - DIRECTION AND SPEED IN MPH
  PRES   - MEAN SEA LEVEL PRESSURE IN INCHES OF HG
  WCI    - WIND CHILL INDEX
  VSB    - VISIBILITY IN MILES
  HX     - HEAT INDEX
  TC     - TEMPERATURE IN CELSIUS
  VRB    - VARIABLE WIND DIRECTION
  N/A    - NOT AVAILABLE
  
      

Other recent Regional Weather Roundups

Tue Oct 22, 1:10am

Tue Oct 22, 1:00am

Tue Oct 22, 12:10am

Tue Oct 22, 12:00am

Mon Oct 21, 11:10pm

Mon Oct 21, 11:00pm

Mon Oct 21, 10:10pm

Mon Oct 21, 10:01pm

Mon Oct 21, 9:10pm

Mon Oct 21, 9:00pm

Mon Oct 21, 8:10pm

Mon Oct 21, 8:00pm

Mon Oct 21, 7:10pm

Mon Oct 21, 7:01pm

Mon Oct 21, 6:10pm

Mon Oct 21, 6:01pm

Mon Oct 21, 5:10pm

Mon Oct 21, 5:01pm

Mon Oct 21, 4:10pm

Mon Oct 21, 4:00pm

Mon Oct 21, 3:10pm

Mon Oct 21, 3:01pm

Mon Oct 21, 2:10pm

Mon Oct 21, 2:00pm

Mon Oct 21, 1:10pm

Mon Oct 21, 1:01pm

Mon Oct 21, 12:10pm

Mon Oct 21, 12:00pm

Mon Oct 21, 11:10am

Mon Oct 21, 11:00am

Mon Oct 21, 10:10am

Mon Oct 21, 10:00am

Mon Oct 21, 9:10am

Mon Oct 21, 9:00am

Mon Oct 21, 7:10am

Mon Oct 21, 7:00am

Mon Oct 21, 6:10am

Mon Oct 21, 6:00am

Mon Oct 21, 5:10am

Mon Oct 21, 5:00am

Mon Oct 21, 4:10am

Mon Oct 21, 4:00am

Mon Oct 21, 3:10am

Mon Oct 21, 3:00am

Mon Oct 21, 2:10am

Mon Oct 21, 2:01am

Mon Oct 21, 1:10am

Mon Oct 21, 1:00am

Mon Oct 21, 12:10am

Mon Oct 21, 12:00am

Sun Oct 20, 11:10pm

Sun Oct 20, 11:00pm

Sun Oct 20, 10:10pm

Sun Oct 20, 10:00pm

Sun Oct 20, 9:10pm

Sun Oct 20, 9:01pm

Sun Oct 20, 8:10pm

Sun Oct 20, 8:00pm

Sun Oct 20, 7:10pm

Sun Oct 20, 7:01pm

Sun Oct 20, 6:10pm

Sun Oct 20, 6:00pm

Sun Oct 20, 5:10pm

Sun Oct 20, 5:00pm

Sun Oct 20, 4:10pm

Sun Oct 20, 4:00pm

Sun Oct 20, 3:10pm

Sun Oct 20, 3:00pm

Sun Oct 20, 2:10pm

Sun Oct 20, 2:01pm

Sun Oct 20, 1:10pm

Sun Oct 20, 1:01pm

Sun Oct 20, 12:10pm

Sun Oct 20, 12:00pm

Sun Oct 20, 11:10am

Sun Oct 20, 11:00am

Sun Oct 20, 10:10am

Sun Oct 20, 10:00am

Sun Oct 20, 9:10am

Sun Oct 20, 9:00am

Sun Oct 20, 8:10am

Sun Oct 20, 8:00am

Sun Oct 20, 7:10am

Sun Oct 20, 7:00am

Sun Oct 20, 6:10am

Sun Oct 20, 6:00am

Sun Oct 20, 5:10am

Sun Oct 20, 5:00am

Sun Oct 20, 4:10am

Sun Oct 20, 4:00am

Sun Oct 20, 3:10am

Sun Oct 20, 3:00am

Sun Oct 20, 2:10am

Sun Oct 20, 2:00am

Sun Oct 20, 1:10am

Sun Oct 20, 1:00am

Sun Oct 20, 12:10am

Sun Oct 20, 12:00am

Sat Oct 19, 11:10pm

Sat Oct 19, 11:00pm

Sat Oct 19, 10:10pm

Sat Oct 19, 9:10pm

Sat Oct 19, 9:00pm

Sat Oct 19, 8:10pm

Sat Oct 19, 8:00pm

Sat Oct 19, 7:10pm

Sat Oct 19, 7:00pm

Sat Oct 19, 6:10pm

Sat Oct 19, 6:00pm

Sat Oct 19, 5:10pm

Sat Oct 19, 5:00pm

Sat Oct 19, 4:10pm

Sat Oct 19, 4:00pm

Sat Oct 19, 3:10pm

Sat Oct 19, 3:01pm

Sat Oct 19, 2:10pm

Sat Oct 19, 2:00pm

Sat Oct 19, 1:10pm

Sat Oct 19, 1:01pm

Sat Oct 19, 12:10pm

Sat Oct 19, 12:00pm

Sat Oct 19, 11:10am

Sat Oct 19, 11:01am

Sat Oct 19, 10:10am

Sat Oct 19, 10:00am

Sat Oct 19, 9:10am

Sat Oct 19, 9:00am

Sat Oct 19, 8:10am

Sat Oct 19, 8:00am

Sat Oct 19, 7:10am

Sat Oct 19, 7:00am

Sat Oct 19, 6:10am

Sat Oct 19, 6:00am

Sat Oct 19, 5:10am

Sat Oct 19, 5:00am

Sat Oct 19, 4:10am

Sat Oct 19, 4:00am

Sat Oct 19, 3:10am

Sat Oct 19, 3:00am

Sat Oct 19, 2:10am

Sat Oct 19, 2:00am

Meta data:

ID: 2d11d65d-07f7-47c4-b0ef-450b2179ab5c
Link: https://api.weather.gov/products/2d11d65d-07f7-47c4-b0ef-450b2179ab5c